Track YAOGAN 20A now! 10-day predictions YAOGAN 20A is classified as:
1 40109U 14047A 26022.53450054 .00000164 00000-0 28005-3 0 9997 2 40109 63.3803 34.6406 0377251 13.8899 347.2166 13.45423172562841